This is the latest recevied weather packets stored in our database for station/object N4MGC. If no packets are shown the sender has not sent any weather packets the latest 10 day(s).
| Time | Temp. | Humidity | Pressure | Rain* | Wind** | Luminosity | Snow |
|---|---|---|---|---|---|---|---|
| 1777991714 | 19.44° C | 74% | 1014.5 hPa | 0 mm | - | 145 W/m² | - |
| 1777991411 | 19.44° C | 76% | 1014.3 hPa | 0 mm | - | 566 W/m² | - |
| 1777991108 | 19.44° C | 75% | 1014.6 hPa | 0 mm | - | 553 W/m² | - |
| 1777990805 | 19.44° C | 76% | 1014.5 hPa | 0 mm | - | 91 W/m² | - |
| 1777990503 | 18.89° C | 76% | 1014.3 hPa | 0 mm | - | 468 W/m² | - |
| 1777989896 | 18.33° C | 77% | 1014.3 hPa | 0 mm | - | 74 W/m² | - |
| 1777989592 | 18.33° C | 80% | 1014.3 hPa | 0 mm | - | 69 W/m² | - |
| 1777989289 | 17.78° C | 81% | 1014.3 hPa | 0 mm | - | 86 W/m² | - |
| 1777988985 | 17.78° C | 82% | 1014.3 hPa | 0 mm | - | 98 W/m² | - |
| 1777988682 | 17.22° C | 81% | 1014.3 hPa | 0 mm | - | 86 W/m² | - |
| 1777988379 | 17.22° C | 83% | 1014 hPa | 0 mm | - | 98 W/m² | - |
| 1777988076 | 16.67° C | 84% | 1014.1 hPa | 0 mm | - | 88 W/m² | - |
| 1777987772 | 16.67° C | 85% | 1013.9 hPa | 0 mm | - | 55 W/m² | - |
| 1777987469 | 16.67° C | 86% | 1014.2 hPa | 0 mm | - | 58 W/m² | - |
| 1777987166 | 16.11° C | 85% | 1014.1 hPa | 0 mm | - | 62 W/m² | - |
| 1777986863 | 15.56° C | 87% | 1014 hPa | 0 mm | - | 65 W/m² | - |
| 1777986561 | 15.56° C | 87% | 1014.3 hPa | 0 mm | - | 59 W/m² | - |
| 1777986259 | 15° C | 89% | 1014.1 hPa | 0 mm | - | 55 W/m² | - |
| 1777985956 | 13.89° C | 94% | 1014 hPa | 0 mm | - | 48 W/m² | - |
| 1777985653 | 13.33° C | 98% | 1014.2 hPa | 0 mm | - | 52 W/m² | - |
| 1777985349 | 12.78° C | 99% | 1014.1 hPa | 0 mm | - | 49 W/m² | - |
| 1777985047 | 12.78° C | 99% | 1014.1 hPa | 0 mm | - | 47 W/m² | - |
| 1777984743 | 12.22° C | 99% | 1013.9 hPa | 0 mm | - | 42 W/m² | - |
| 1777984439 | 11.67° C | 99% | 1013.9 hPa | 0 mm | - | 39 W/m² | - |
| 1777984135 | 11.67° C | 99% | 1013.9 hPa | 0 mm | - | 34 W/m² | - |
* Rain latest hour (hover to see other rain measurements)
** Current wind speed in m/s (hover to see current wind gust speed)